Location: *
(42.5628°N, 2.3633°E)
Time: 20:41:53
(UTC+00:00)

Cosmos 1943 - Pass Details

Date: 30 March 2020
Orbit: 832 x 851 km, 71.0° (Epoch: 30 May)

Event Time Altitude Azimuth Distance (km) Brightness Sun altitude
Rises 19:53:29 0° 179° (S) 3,371 6.1 -18.3°
Enters shadow 19:54:11 - 178° (S) 3,112 5.9 -18.4°
Exits shadow 20:00:04 35° 132° (SE) 1,337 3.7 -19.4°
Maximum altitude 20:01:11 38° 105° (ESE) 1,259 3.6 -19.6°
Drops below altitude 10° 20:06:22 10° 39° (NE) 2,472 5.5 -20.5°
Sets 20:08:58 0° 32° (NNE) 3,414 6.3 -20.9°
